Погода в Вечкидееве

Россия / Республика Мордовия     54°46′54″N   42°45′26″E
темп.,
°C
ветер,
м/с
пор.,
м/с
влажн.,
%
обл.,
%
осадки,
мм/ч
давл.,
гПа
погр.,
м
17 мая, пн
пн1700:00+15всв118753 0.5 101411
03:00+15в228964 0.8 101532
06:00+17в359053 0.0 1015137
09:00+22в45735 0.0 1015444
12:00+27ююв455150 0.0 1015837
15:00+28ююв474643 0.0 10141296
18:00+24вюв476487 0.0 1014130
21:00+19вюв4573100 0.0 101459
18 мая, вт
вт1800:00+16вюв397070 0.0 1015137
03:00+15вюв387684 0.0 1014113
06:00+16вюв4107849 0.0 1014186
09:00+23вюв5105999 0.0 1014469
12:00+26вюв610485 0.0 10131322
15:00+27вюв69505 0.0 10121143
18:00+24вюв511625 0.0 1012330
21:00+19в412745 0.0 1012198
19 мая, ср
ср1900:00+18вюв513689 0.0 1012276
03:00+17вюв5146327 0.0 1012298
06:00+16вюв514714 0.0 1012297
09:00+22вюв6155980 0.0 1012592
12:00+27вюв7125270 0.0 10111245
15:00+27вюв812554 0.0 10111325
18:00+24вюв613625 0.0 1010509
21:00+22в716660 0.0 1010504
20 мая, чт
чт2000:00+19вюв614650 0.0 1010523
03:00+16вюв513764 0.0 1010355
06:00+17вюв6128014 0.0 1010546
09:00+20юв7117373 0.0 10091100
12:00+19юв7118089 1.0 1009952
15:00+16ю4890100 3.1 1008380
18:00+14вюв4896100 8.4 1010344
21:00+13юв5119626 8.6 1010291
21 мая, пт
пт2100:00+12ююв4997100 0.0 1010241
03:00+11ю39973 0.0 1010236
06:00+12ююз499526 0.0 1011337
09:00+16ю5872100 0.0 1011682
12:00+16ююз81379100 0.7 10121239
15:00+17ююз7117766 2.0 10121252
18:00+16ююз612810 0.9 10111006
21:00+13ююз511918 1.4 1012364